Location: Dortmund
(51.5019°N, 7.6520°E)
Time: 10:16:11
(UTC+01:00)

ISS - Pass Details

Date: 15 November 2017
Orbit: 402 x 407 km, 51.6° (Epoch: 21 November)

Event Time Altitude Azimuth Distance (km) Brightness Sun altitude
Exits shadow 06:28:16 14° 242° (WSW) 1,248 -1.8 -12.2°
Maximum altitude 06:29:21 16° 219° (SW) 1,156 -1.8 -12.1°
Drops below altitude 10° 06:31:24 10° 179° (S) 1,450 -0.8 -11.8°
Sets 06:34:02 0° 157° (SSE) 2,304 0.6 -11.4°
